Location: ??
(35.5672°N, 139.6509°E)
Time: 10:09:44
(UTC+00:00)

CZ-2C R/B - Pass Details

Date: 03 August 2024
Orbit: 782 x 869 km, 98.3° (Epoch: 13 September)

Event Time Altitude Azimuth Distance (km) Brightness Sun altitude
Exits shadow 16:35:37 65° 30° (NNE) 950 3.0 -31.3°
Drops below altitude 10° 16:40:31 10° 352° (N) 2,495 5.7 -30.8°
Sets 16:42:53 0° 351° (N) 3,425 6.5 -30.5°
